STARLINK-5637 (55432 NORAD) Tracking and Keplerian Element Data

This shows tracking and keplerian element data for the satellite.

Feedback or suggestion? Click here.




ElementValue
Catalog55432
NameSTARLINK-5637
Epoch Orbit1468
Epoch Day126.93010153
Epoch Year2023
RAAN200.9653
Inclination69.9996
Eccentricity0.0003276
Argument of Perigee272.1904
Mean Anonmoly87.888
Mean Motion14.98331274
Decay Rate-4.8E-07
L11 55432U 23014AT 23126.93010153 -.00000048 00000+0 37457-5 0 9998
L22 55432 69.9996 200.9653 0003276 272.1904 87.8880 14.98331274 14687



Live tracking and technical data element details for STARLINK-5637 (NORAD 55432). STARLINK-5637 can be tracked NOW for your location showing map with azimuth and elevation plus other details from your city location.







IsCatalogInMostPopularTable: catalog: 55432, numindb: -1

Insert: records affected: 1


GetName: 55432 STARLINK-5637

Hit Count: inserted at: Mon, 05 Jun 2023 20:15:24 GMT